EW1440 Weather Reports


Display with metric or nautical units.
time (UTC)temp
F
wind
direction
speed
MPH
gust
MPH
rain 1hr
in
rain 24hr
in
rain mn
in
humidity
%
barometer
mb
20260509024034 72 83 1.0 4.0 0.00 0.00 0.00 82 1009.9
20260509023535 72 83 1.0 4.0 0.00 0.00 0.00 82 1009.9
20260509023057 72 68 2.0 4.0 0.00 0.00 0.00 82 1009.8
20260509022535 73 60 2.0 4.0 0.00 0.00 0.00 82 1009.9
20260509022036 73 52 2.0 4.0 0.00 0.00 0.00 82 1009.8
20260509021547 73 55 1.0 6.0 0.00 0.00 0.00 81 1009.8
20260509021033 73 60 2.0 6.0 0.00 0.00 0.00 81 1009.7
20260509020533 73 78 2.0 7.0 0.00 0.00 0.00 81 1009.6
20260509020049 74 80 3.0 7.0 0.00 0.00 0.00 81 1009.5
20260509015533 74 70 3.0 7.0 0.00 0.00 0.00 80 1009.5
20260509015036 74 42 2.0 5.0 0.00 0.00 0.00 80 1009.4
20260509014544 74 43 3.0 5.0 0.00 0.00 0.00 80 1009.3
20260509014034 74 54 2.0 4.0 0.00 0.00 0.00 79 1009.1
20260509013534 75 57 2.0 6.0 0.00 0.00 0.00 79 1009.0
20260509013102 75 81 2.0 6.0 0.00 0.00 0.00 79 1009.0
20260509012534 75 66 2.0 7.0 0.00 0.00 0.00 79 1009.0
20260509012031 75 83 3.0 7.0 0.00 0.00 0.00 79 1008.9
20260509011603 76 82 4.0 7.0 0.00 0.00 0.00 79 1009.0
20260509011033 76 62 2.0 6.0 0.00 0.00 0.00 79 1009.0
20260509010536 76 74 2.0 6.0 0.00 0.00 0.00 79 1009.0
20260509010047 76 87 3.0 6.0 0.00 0.00 0.00 79 1009.0
20260509005532 76 76 3.0 6.0 0.00 0.00 0.00 79 1009.1
20260509005031 76 85 3.0 7.0 0.00 0.00 0.00 79 1009.0
20260509004552 76 62 2.0 8.0 0.00 0.00 0.00 79 1008.8
20260509004034 76 76 3.0 8.0 0.00 0.00 0.00 79 1008.9
20260509003531 76 56 3.0 7.0 0.00 0.00 0.00 79 1008.9
20260509003053 76 62 3.0 7.0 0.00 0.00 0.00 79 1009.0
20260509002530 76 193 4.0 7.0 0.00 0.00 0.00 79 1008.9
20260509002030 76 34 2.0 8.0 0.00 0.00 0.00 79 1008.9
20260509001545 76 66 2.0 8.0 0.00 0.00 0.00 78 1008.8
20260509001033 76 100 4.0 8.0 0.00 0.00 0.00 78 1008.8
20260509000534 77 51 4.0 8.0 0.00 0.00 0.00 77 1008.8
20260508235531 77 60 3.0 9.0 0.00 0.00 0.00 78 1008.9
20260508235034 77 52 3.0 9.0 0.00 0.00 0.00 78 1009.0
20260508234547 77 91 4.0 8.0 0.00 0.00 0.00 78 1009.0
20260508234035 77 66 4.0 7.0 0.00 0.00 0.00 77 1009.0
20260508233534 77 118 3.0 7.0 0.00 0.00 0.00 78 1009.0
20260508233050 77 87 3.0 7.0 0.00 0.00 0.00 78 1009.0
20260508232530 77 45 3.0 9.0 0.00 0.00 0.00 77 1008.9
20260508232033 77 41 4.0 9.0 0.00 0.00 0.00 79 1009.0
20260508231550 76 80 4.0 9.0 0.00 0.00 0.00 79 1009.0
20260508231032 76 93 3.0 9.0 0.00 0.00 0.00 78 1009.0
20260508230531 77 79 5.0 9.0 0.00 0.00 0.00 77 1009.1
20260508230046 78 76 4.0 9.0 0.00 0.00 0.00 76 1009.0
20260508225534 78 75 4.0 7.0 0.00 0.00 0.00 78 1009.0
20260508225033 77 0 3.0 8.0 0.00 0.00 0.00 77 1009.1
20260508224545 77 101 3.0 11.0 0.00 0.00 0.00 77 1009.1
20260508224033 77 86 4.0 11.0 0.00 0.00 0.00 78 1009.2
20260508223531 77 130 4.0 9.0 0.00 0.00 0.00 78 1009.1
20260508223048 77 111 5.0 11.0 0.00 0.00 0.00 78 1009.2
20260508222532 77 138 4.0 11.0 0.00 0.00 0.00 79 1009.3
20260508222031 77 86 6.0 11.0 0.00 0.00 0.00 76 1009.3
20260508221545 78 77 3.0 8.0 0.00 0.00 0.00 78 1009.4
20260508221034 77 89 3.0 8.0 0.00 0.00 0.00 79 1009.4
20260508220534 77 162 3.0 7.0 0.00 0.00 0.00 78 1009.5
20260508220048 76 124 3.0 8.0 0.00 0.00 0.00 79 1009.5
20260508215532 76 132 4.0 8.0 0.00 0.00 0.00 77 1009.5
20260508215033 76 116 3.0 8.0 0.00 0.00 0.00 77 1009.5
20260508214556 76 113 5.0 9.0 0.00 0.00 0.00 79 1009.6
20260508214033 76 126 3.0 12.0 0.00 0.00 0.00 77 1009.7
20260508213535 77 141 4.0 12.0 0.00 0.00 0.00 76 1009.6
20260508213057 78 175 6.0 12.0 0.00 0.00 0.00 75 1009.6
20260508212534 78 171 7.0 12.0 0.00 0.00 0.00 75 1009.7
20260508212037 78 180 6.0 12.0 0.00 0.00 0.00 76 1009.8
20260508211543 77 146 5.0 13.0 0.00 0.00 0.00 76 1009.8
20260508211034 77 133 6.0 13.0 0.00 0.00 0.00 77 1009.9
20260508210534 77 118 5.0 10.0 0.00 0.00 0.00 78 1009.9
20260508210048 76 168 6.0 11.0 0.00 0.00 0.00 78 1010.1
20260508205533 75 153 5.0 11.0 0.00 0.00 0.00 79 1010.1
20260508205034 75 164 6.0 12.0 0.00 0.00 0.00 80 1010.2
20260508204551 75 141 7.0 12.0 0.00 0.00 0.00 79 1010.4
20260508204033 75 149 6.0 12.0 0.00 0.00 0.00 79 1010.4
20260508203533 76 191 5.0 12.0 0.00 0.00 0.00 80 1010.4
20260508203054 76 168 6.0 12.0 0.00 0.00 0.00 79 1010.5
20260508202535 76 110 4.0 10.0 0.00 0.00 0.00 79 1010.4
20260508202033 76 161 6.0 10.0 0.00 0.00 0.00 78 1010.5
20260508201556 76 133 6.0 10.0 0.00 0.00 0.00 80 1010.6
20260508201034 76 154 5.0 12.0 0.00 0.00 0.00 79 1010.4
20260508200533 76 185 5.0 12.0 0.00 0.00 0.00 76 1010.4
20260508200100 78 140 6.0 12.0 0.00 0.00 0.00 75 1010.4
20260508195534 78 132 2.0 9.0 0.00 0.00 0.00 77 1010.5
20260508195034 77 131 4.0 8.0 0.00 0.00 0.00 77 1010.5
20260508194545 77 131 3.0 8.0 0.00 0.00 0.00 78 1010.4
20260508194035 76 157 3.0 9.0 0.00 0.00 0.00 78 1010.5
20260508193535 76 113 3.0 9.0 0.00 0.00 0.00 79 1010.5
20260508193054 76 140 4.0 11.0 0.00 0.00 0.00 79 1010.6
20260508192534 75 133 5.0 11.0 0.00 0.00 0.00 78 1010.7
20260508192034 75 154 6.0 11.0 0.00 0.00 0.00 80 1010.7
20260508191552 75 87 3.0 10.0 0.00 0.00 0.00 77 1010.7
20260508191038 76 102 3.0 11.0 0.00 0.00 0.00 77 1010.8
20260508190535 77 131 7.0 11.0 0.00 0.00 0.00 77 1010.8
20260508190052 76 127 4.0 9.0 0.00 0.00 0.00 78 1010.8
20260508185531 75 148 5.0 9.0 0.00 0.00 0.00 79 1010.9
20260508185030 75 119 3.0 11.0 0.00 0.00 0.00 81 1011.0
20260508184548 74 114 2.0 11.0 0.00 0.00 0.00 80 1011.2
20260508184038 75 113 4.0 11.0 0.00 0.00 0.00 78 1011.3
20260508183537 76 140 4.0 10.0 0.00 0.00 0.00 78 1011.2
20260508183049 75 133 3.0 10.0 0.00 0.00 0.00 82 1011.3
20260508182535 74 89 4.0 10.0 0.00 0.00 0.00 82 1011.3
20260508182034 74 149 3.0 11.0 0.00 0.00 0.00 80 1011.4
20260508181607 73 124 3.0 11.0 0.00 0.00 0.00 80 1011.5
20260508181036 73 119 2.0 8.0 0.00 0.00 0.00 81 1011.5
20260508180534 73 135 2.0 8.0 0.00 0.00 0.00 80 1011.6
20260508180104 74 82 4.0 10.0 0.00 0.00 0.00 79 1011.6
20260508175534 74 113 2.0 10.0 0.00 0.00 0.00 81 1011.7
20260508175035 73 72 4.0 10.0 0.00 0.00 0.00 82 1011.7
20260508174546 73 58 4.0 10.0 0.00 0.00 0.00 81 1011.8
20260508174036 72 142 3.0 8.0 0.00 0.00 0.00 83 1011.9
20260508173533 71 143 4.0 8.0 0.00 0.00 0.00 84 1012.0
20260508173050 71 135 3.0 6.0 0.00 0.00 0.00 84 1012.2
20260508172534 70 116 3.0 7.0 0.00 0.00 0.00 86 1012.4
20260508172035 70 0 1.0 7.0 0.00 0.00 0.00 84 1012.4
20260508171544 70 163 2.0 7.0 0.00 0.00 0.00 84 1012.5
20260508171034 70 0 2.0 7.0 0.00 0.00 0.00 83 1012.5
20260508170534 70 97 4.0 7.0 0.00 0.00 0.00 85 1012.5
20260508170046 69 40 2.0 7.0 0.00 0.00 0.00 85 1012.6
20260508165535 68 76 2.0 7.0 0.00 0.00 0.00 86 1012.8
20260508165035 68 78 1.0 7.0 0.00 0.00 0.00 86 1013.0
20260508164554 68 52 0.0 6.0 0.00 0.00 0.00 86 1013.1
20260508164034 68 0 2.0 7.0 0.00 0.00 0.00 86 1013.0
20260508163533 68 57 2.0 7.0 0.00 0.00 0.00 87 1013.0
20260508163048 68 29 3.0 5.0 0.00 0.00 0.00 87 1013.0
20260508162534 67 26 0.0 4.0 0.00 0.00 0.00 86 1013.1
20260508162034 67 352 0.0 5.0 0.00 0.00 0.00 87 1013.2
20260508161547 67 70 2.0 7.0 0.00 0.00 0.00 87 1013.2
20260508161031 67 43 1.0 7.0 0.00 0.00 0.00 88 1013.1
20260508160533 67 53 4.0 7.0 0.00 0.00 0.00 88 1013.1
20260508160047 67 340 2.0 4.0 0.00 0.00 0.00 86 1013.2
20260508155534 66 58 2.0 5.0 0.00 0.00 0.00 87 1013.2
20260508155030 66 29 1.0 5.0 0.00 0.00 0.00 88 1013.2
20260508154553 66 119 3.0 5.0 0.00 0.00 0.00 88 1013.3
20260508154033 65 340 2.0 6.0 0.00 0.00 0.00 88 1013.4
20260508153534 65 23 3.0 8.0 0.00 0.00 0.00 88 1013.5
20260508153051 66 353 4.0 8.0 0.00 0.00 0.00 89 1013.5
20260508152535 65 345 3.0 5.0 0.00 0.00 0.00 89 1013.6
20260508152033 65 35 2.0 4.0 0.00 0.00 0.00 90 1013.7
20260508151549 64 32 2.0 4.0 0.00 0.00 0.00 89 1013.8
20260508151034 64 357 1.0 4.0 0.00 0.00 0.00 88 1014.0
20260508150535 64 34 2.0 4.0 0.00 0.00 0.00 89 1014.1
20260508150046 64 60 2.0 4.0 0.00 0.00 0.00 88 1014.0
20260508145535 64 69 2.0 4.0 0.00 0.00 0.00 88 1013.9
20260508145033 64 42 2.0 5.0 0.00 0.00 0.00 88 1013.9
20260508144547 64 58 2.0 5.0 0.00 0.00 0.00 88 1014.1
20260508144033 64 29 3.0 7.0 0.00 0.00 0.00 88 1013.9
20260508143534 63 351 1.0 7.0 0.00 0.00 0.00 89 1014.1
20260508143045 63 26 2.0 7.0 0.00 0.00 0.00 89 1014.0
20260508142533 63 19 2.0 7.0 0.00 0.00 0.00 88 1013.9
20260508142033 63 72 4.0 7.0 0.00 0.00 0.00 88 1014.0
20260508141604 63 91 2.0 9.0 0.00 0.00 0.00 89 1014.1
20260508141033 63 73 4.0 9.0 0.00 0.00 0.00 89 1014.1
20260508140533 63 66 5.0 9.0 0.00 0.00 0.00 89 1014.0
20260508140058 63 27 3.0 7.0 0.00 0.00 0.00 89 1014.0
20260508135534 63 124 2.0 5.0 0.00 0.00 0.00 89 1013.9
20260508135034 63 35 2.0 4.0 0.00 0.00 0.00 89 1014.0
20260508134548 63 103 0.0 4.0 0.00 0.00 0.00 89 1014.2
20260508134033 63 103 2.0 4.0 0.00 0.00 0.00 89 1014.0
20260508133534 63 109 0.0 3.0 0.00 0.00 0.00 89 1014.0
20260508133049 63 0 1.0 4.0 0.00 0.00 0.00 89 1014.0
20260508132533 63 108 1.0 4.0 0.00 0.00 0.00 89 1014.0
20260508132033 63 133 2.0 7.0 0.00 0.00 0.00 89 1013.9
20260508131558 63 131 2.0 8.0 0.00 0.00 0.00 89 1013.7
20260508131034 63 103 3.0 8.0 0.00 0.00 0.00 89 1013.5
20260508130533 63 75 4.0 8.0 0.00 0.00 0.00 89 1013.2
20260508130050 63 91 3.0 6.0 0.00 0.00 0.00 89 1013.2
20260508125533 63 112 1.0 5.0 0.00 0.00 0.00 89 1013.2
20260508125034 63 112 1.0 5.0 0.00 0.00 0.00 89 1013.3
20260508124551 63 72 2.0 4.0 0.00 0.00 0.00 89 1013.2
20260508124034 63 80 3.0 4.0 0.00 0.00 0.00 88 1013.4
20260508123537 63 44 2.0 4.0 0.00 0.00 0.00 88 1013.4
20260508123051 63 330 0.0 2.0 0.00 0.00 0.00 88 1013.6
20260508122533 63 330 0.0 3.0 0.00 0.00 0.00 88 1013.6
20260508122035 63 330 0.0 4.0 0.00 0.00 0.00 88 1013.8
20260508121552 63 65 1.0 5.0 0.00 0.00 0.00 87 1014.0
20260508121034 63 64 2.0 5.0 0.00 0.00 0.00 87 1013.9
20260508120535 63 74 2.0 4.0 0.00 0.00 0.00 87 1013.7
20260508120056 63 350 1.0 5.0 0.00 0.00 0.00 87 1014.0
20260508115533 63 331 1.0 9.0 0.00 0.00 0.00 87 1014.1
20260508115034 63 56 4.0 9.0 0.00 0.00 0.00 87 1013.9
20260508114549 63 35 1.0 4.0 0.00 0.00 0.00 86 1013.9
20260508114033 63 73 2.0 4.0 0.00 0.00 0.00 86 1013.7
20260508113534 63 43 2.0 3.0 0.00 0.00 0.00 86 1013.9
20260508113057 63 0 1.0 3.0 0.00 0.00 0.00 86 1013.9
20260508112533 63 312 0.0 4.0 0.00 0.00 0.00 86 1014.2
20260508112033 63 0 1.0 4.0 0.00 0.00 0.00 85 1014.0
20260508111556 63 332 1.0 4.0 0.00 0.00 0.00 85 1013.9
20260508111035 63 332 2.0 6.0 0.00 0.00 0.00 85 1013.7
20260508110536 63 276 1.0 7.0 0.00 0.00 0.00 85 1013.8
20260508110058 63 301 3.0 7.0 0.00 0.00 0.00 85 1013.6
20260508105536 63 351 4.0 6.0 0.00 0.00 0.00 84 1013.7
20260508105034 63 340 1.0 6.0 0.00 0.00 0.00 84 1013.9
20260508104546 63 325 2.0 6.0 0.00 0.00 0.00 84 1013.7
20260508104033 63 12 3.0 6.0 0.00 0.00 0.00 84 1013.7
20260508103533 63 326 3.0 9.0 0.00 0.00 0.00 83 1013.8
20260508103055 63 345 2.0 9.0 0.00 0.00 0.00 84 1013.9
20260508102533 63 72 5.0 8.0 0.00 0.00 0.00 83 1013.4
20260508102035 63 84 4.0 7.0 0.00 0.00 0.00 83 1013.8
20260508101544 63 58 1.0 5.0 0.00 0.00 0.00 83 1014.1
20260508101035 63 12 1.0 6.0 0.00 0.00 0.00 83 1014.1
20260508100534 63 0 2.0 7.0 0.00 0.00 0.00 83 1013.9
20260508100048 63 58 3.0 7.0 0.00 0.00 0.00 83 1013.6
20260508095534 64 33 2.0 4.0 0.00 0.00 0.00 82 1013.7
20260508095033 64 0 1.0 4.0 0.00 0.00 0.00 82 1013.7
20260508094604 64 78 2.0 4.0 0.00 0.00 0.00 82 1013.6
20260508094033 64 330 0.0 2.0 0.00 0.00 0.00 81 1013.9
20260508093533 64 331 0.0 3.0 0.00 0.00 0.00 81 1014.1
20260508093046 64 331 0.0 3.0 0.00 0.00 0.00 81 1014.2
20260508092535 64 352 1.0 4.0 0.00 0.00 0.00 80 1014.1
20260508092033 64 22 1.0 5.0 0.00 0.00 0.00 80 1013.9
20260508091545 64 40 2.0 8.0 0.00 0.00 0.00 80 1013.9
20260508091033 64 29 2.0 11.0 0.00 0.00 0.00 79 1013.9
20260508090532 64 62 3.0 11.0 0.00 0.00 0.00 79 1013.7
20260508085534 64 106 3.0 7.0 0.00 0.00 0.00 78 1013.4
20260508085033 64 81 3.0 6.0 0.00 0.00 0.00 78 1013.7
20260508084548 64 16 3.0 8.0 0.00 0.00 0.00 77 1014.0
20260508084034 64 50 1.0 8.0 0.00 0.00 0.00 77 1014.0
20260508083534 64 54 4.0 8.0 0.00 0.00 0.00 77 1013.8
20260508083107 64 63 3.0 7.0 0.00 0.00 0.00 77 1014.0
20260508082608 64 45 2.0 6.0 0.00 0.00 0.00 76 1014.3
20260508082035 64 52 3.0 7.0 0.00 0.00 0.00 76 1014.1
20260508081547 64 60 3.0 7.0 0.00 0.00 0.00 76 1014.0
20260508081038 64 51 4.0 8.0 0.00 0.00 0.00 75 1014.0
20260508080535 64 45 3.0 8.0 0.00 0.00 0.00 75 1013.9
20260508080052 64 82 2.0 6.0 0.00 0.00 0.00 75 1014.0
20260508075533 64 46 2.0 6.0 0.00 0.00 0.00 75 1014.3
20260508075032 64 31 2.0 7.0 0.00 0.00 0.00 74 1014.3
20260508074553 64 51 3.0 7.0 0.00 0.00 0.00 74 1014.2
20260508074033 64 85 2.0 7.0 0.00 0.00 0.00 74 1014.3
20260508073534 64 72 3.0 7.0 0.00 0.00 0.00 74 1014.7
20260508073048 64 62 3.0 7.0 0.00 0.00 0.00 75 1014.5
20260508072533 65 70 2.0 9.0 0.00 0.00 0.00 75 1014.6
20260508072036 65 122 1.0 9.0 0.00 0.00 0.00 74 1014.8
20260508071548 65 0 4.0 9.0 0.00 0.00 0.00 74 1015.1
20260508071033 65 81 2.0 6.0 0.00 0.00 0.00 75 1014.9
20260508070533 65 99 2.0 3.0 0.00 0.00 0.00 75 1014.7
20260508070044 65 83 0.0 2.0 0.00 0.00 0.00 74 1015.0
20260508065533 65 0 0.0 2.0 0.00 0.00 0.00 74 1015.0
20260508065033 65 0 0.0 2.0 0.00 0.00 0.00 74 1014.9
20260508064551 65 0 0.0 2.0 0.00 0.00 0.00 74 1014.9
20260508064034 65 0 0.0 1.0 0.00 0.00 0.00 74 1015.0
20260508063534 65 83 0.0 1.0 0.00 0.00 0.00 74 1015.0
20260508063047 65 0 0.0 1.0 0.00 0.00 0.00 73 1015.0
20260508062533 65 0 0.0 1.0 0.00 0.00 0.00 73 1015.1
20260508062033 65 0 0.0 2.0 0.00 0.00 0.00 73 1015.2
20260508061554 65 0 0.0 3.0 0.00 0.00 0.00 73 1015.2
20260508061034 65 83 0.0 3.0 0.00 0.00 0.00 73 1014.9
20260508060533 65 83 1.0 4.0 0.00 0.00 0.00 73 1014.7
20260508060047 65 0 0.0 6.0 0.00 0.00 0.00 73 1014.7
20260508055534 65 70 1.0 6.0 0.00 0.00 0.00 72 1014.6
20260508055034 65 66 3.0 8.0 0.00 0.00 0.00 72 1014.4
20260508054544 65 137 2.0 10.0 0.00 0.00 0.00 72 1014.4
20260508054035 65 54 4.0 10.0 0.00 0.00 0.00 72 1014.2
20260508053534 65 62 5.0 9.0 0.00 0.00 0.00 72 1013.9
20260508053048 65 69 4.0 9.0 0.00 0.00 0.00 73 1014.1
20260508052534 65 67 1.0 6.0 0.00 0.00 0.00 73 1015.0
20260508052036 65 89 2.0 4.0 0.00 0.00 0.00 73 1014.7
20260508051553 65 0 0.0 4.0 0.00 0.00 0.00 72 1015.4
20260508051034 65 0 0.0 4.0 0.00 0.00 0.00 72 1015.8
20260508050534 65 294 2.0 4.0 0.00 0.00 0.00 71 1016.0
20260508050048 65 324 0.0 1.0 0.00 0.00 0.00 72 1016.0
20260508045533 65 0 0.0 1.0 0.00 0.00 0.00 71 1015.8
20260508045033 65 0 0.0 0.0 0.00 0.00 0.00 71 1015.7
20260508044546 65 0 0.0 3.0 0.00 0.00 0.00 71 1015.6
20260508044041 65 0 0.0 4.0 0.00 0.00 0.00 71 1015.4
20260508043533 65 318 1.0 5.0 0.00 0.00 0.00 70 1015.5
20260508043050 65 306 2.0 6.0 0.00 0.00 0.00 70 1015.6
20260508042534 65 315 2.0 7.0 0.00 0.00 0.00 70 1015.7
20260508042035 65 294 4.0 7.0 0.00 0.00 0.00 69 1015.8
20260508041550 65 303 2.0 6.0 0.00 0.00 0.00 70 1015.6
20260508041033 66 93 3.0 6.0 0.00 0.00 0.00 70 1014.8
20260508040534 66 101 1.0 8.0 0.00 0.00 0.00 69 1014.4
20260508040051 66 60 2.0 9.0 0.00 0.00 0.00 69 1014.2
20260508035535 66 95 4.0 9.0 0.00 0.00 0.00 69 1013.8
20260508035034 66 95 3.0 13.0 0.00 0.00 0.00 68 1014.0
20260508034551 66 75 6.0 13.0 0.00 0.00 0.00 68 1013.9
20260508034033 66 71 7.0 12.0 0.00 0.00 0.00 68 1013.7
20260508033533 66 85 5.0 10.0 0.00 0.00 0.00 68 1014.0
20260508033048 66 62 7.0 11.0 0.00 0.00 0.00 68 1014.2
20260508032534 66 69 6.0 11.0 0.00 0.00 0.00 69 1014.2
20260508032034 66 51 4.0 11.0 0.00 0.00 0.00 70 1014.6
20260508031551 66 24 3.0 8.0 0.00 0.00 0.00 71 1014.7
20260508031032 66 73 4.0 8.0 0.00 0.00 0.00 72 1014.6
20260508030532 66 78 4.0 8.0 0.00 0.00 0.00 73 1014.8
20260508030051 66 71 3.0 7.0 0.00 0.00 0.00 74 1015.1
20260508025537 67 60 2.0 4.0 0.00 0.00 0.00 74 1015.2
20260508025033 67 39 1.0 4.0 0.00 0.00 0.00 74 1015.4
20260508024551 66 39 1.0 4.0 0.00 0.00 0.00 74 1015.4